• In Lithuania
  • List of Countries
  • For 7 days
  • Water Temperature
  • Satellite Maps
  • Weather Map
  • Weather Widgets
  • user-avatar
    Login

    Hourly Weather Tampa

    Today, 22 July, Sunday

    Time Temperature Precipitation Wind Pressure Humidity
    00:00 +30°C° 0 mm 4 mps 759 mmHg 83%
    01:00 +30°C° 0 mm 4 mps 759 mmHg 84%
    02:00 +30°C° 1 mm 4 mps 759 mmHg 85%
    03:00 +30°C° 1 mm 4 mps 759 mmHg 86%
    04:00 +30°C° 1 mm 4 mps 758 mmHg 86%
    05:00 +30°C° 1.1 mm 4 mps 758 mmHg 85%
    06:00 +30°C° 1.1 mm 5 mps 758 mmHg 84%
    07:00 +30°C° 1.1 mm 5 mps 759 mmHg 83%
    08:00 +32°C° 0.8 mm 5 mps 759 mmHg 79%
    09:00 +33°C° 0.8 mm 6 mps 759 mmHg 75%
    10:00 +33°C° 0.8 mm 6 mps 759 mmHg 71%
    11:00 +33°C° 2.8 mm 6 mps 759 mmHg 71%
    12:00 +33°C° 2.8 mm 6 mps 759 mmHg 70%
    13:00 +33°C° 2.8 mm 6 mps 759 mmHg 70%
    14:00 +34°C° 0.3 mm 6 mps 758 mmHg 68%
    15:00 +34°C° 0.3 mm 6 mps 758 mmHg 66%
    16:00 +35°C° 0.3 mm 6 mps 757 mmHg 64%
    17:00 +34°C° 0.6 mm 6 mps 757 mmHg 67%
    18:00 +33°C° 0.6 mm 6 mps 757 mmHg 71%
    19:00 +33°C° 0.6 mm 5 mps 757 mmHg 74%
    20:00 +32°C° 0.4 mm 5 mps 758 mmHg 76%
    21:00 +32°C° 0.4 mm 5 mps 758 mmHg 77%
    22:00 +30°C° 0.4 mm 5 mps 758 mmHg 78%
    23:00 +30°C° 0.2 mm 5 mps 758 mmHg 79%

    Tomorrow, 23 July, Monday

    Time Temperature Precipitation Wind Pressure Humidity
    00:00 +30°C° 0.2 mm 5 mps 758 mmHg 80%
    01:00 +30°C° 0.2 mm 5 mps 757 mmHg 80%
    02:00 +30°C° 0.1 mm 5 mps 757 mmHg 81%
    03:00 +30°C° 0.1 mm 5 mps 757 mmHg 82%
    04:00 +30°C° 0.1 mm 5 mps 757 mmHg 82%
    05:00 +30°C° 0.6 mm 5 mps 757 mmHg 81%
    06:00 +30°C° 0.6 mm 5 mps 757 mmHg 79%
    07:00 +30°C° 0.6 mm 5 mps 757 mmHg 78%
    08:00 +32°C° 0.3 mm 5 mps 757 mmHg 72%
    09:00 +33°C° 0.3 mm 6 mps 757 mmHg 65%
    10:00 +34°C° 0.3 mm 6 mps 757 mmHg 59%
    11:00 +35°C° 0.1 mm 7 mps 757 mmHg 57%
    12:00 +35°C° 0.1 mm 7 mps 757 mmHg 56%
    13:00 +35°C° 0.1 mm 7 mps 757 mmHg 54%
    14:00 +35°C° 0.1 mm 7 mps 757 mmHg 54%
    15:00 +35°C° 0.1 mm 7 mps 757 mmHg 54%
    16:00 +35°C° 0.1 mm 7 mps 756 mmHg 54%
    17:00 +34°C° 0.3 mm 6 mps 757 mmHg 59%
    18:00 +33°C° 0.3 mm 5 mps 757 mmHg 64%
    19:00 +32°C° 0.3 mm 4 mps 757 mmHg 68%
    20:00 +32°C° 0.1 mm 4 mps 757 mmHg 70%
    21:00 +30°C° 0.1 mm 4 mps 758 mmHg 72%
    22:00 +30°C° 0.1 mm 4 mps 758 mmHg 74%
    23:00 +30°C° 0 mm 4 mps 758 mmHg 74%

    Day after tomorrow, 24 July, Tuesday

    Time Temperature Precipitation Wind Pressure Humidity
    00:00 +29°C° 0 mm 4 mps 758 mmHg 75%
    01:00 +29°C° 0 mm 4 mps 758 mmHg 76%
    02:00 +29°C° 0 mm 4 mps 758 mmHg 77%
    03:00 +29°C° 0 mm 3 mps 758 mmHg 77%
    04:00 +29°C° 0 mm 3 mps 758 mmHg 78%
    05:00 +29°C° 0 mm 3 mps 758 mmHg 77%
    06:00 +29°C° 0 mm 4 mps 758 mmHg 76%
    07:00 +29°C° 0 mm 4 mps 759 mmHg 76%
    08:00 +32°C° 0 mm 4 mps 759 mmHg 70%
    09:00 +33°C° 0 mm 5 mps 759 mmHg 64%
    10:00 +34°C° 0 mm 6 mps 760 mmHg 58%
    11:00 +35°C° 0.2 mm 6 mps 759 mmHg 56%
    12:00 +35°C° 0.2 mm 6 mps 759 mmHg 54%
    13:00 +36°C° 0.2 mm 7 mps 759 mmHg 53%
    14:00 +36°C° 0.4 mm 7 mps 759 mmHg 53%
    15:00 +36°C° 0.4 mm 7 mps 759 mmHg 53%
    16:00 +35°C° 0.4 mm 7 mps 758 mmHg 53%
    17:00 +34°C° 0.2 mm 6 mps 758 mmHg 57%
    18:00 +34°C° 0.2 mm 5 mps 759 mmHg 61%
    19:00 +33°C° 0.2 mm 4 mps 759 mmHg 65%
    20:00 +32°C° 0.1 mm 4 mps 759 mmHg 67%
    21:00 +32°C° 0.1 mm 4 mps 760 mmHg 68%
    22:00 +30°C° 0.1 mm 3 mps 760 mmHg 70%
    23:00 +30°C° 0 mm 3 mps 760 mmHg 71%

    25 July, Wednesday

    Time Temperature Precipitation Wind Pressure Humidity
    00:00 +30°C° 0 mm 3 mps 760 mmHg 73%
    01:00 +29°C° 0 mm 3 mps 759 mmHg 74%
    02:00 +29°C° 0.1 mm 4 mps 759 mmHg 75%
    03:00 +29°C° 0.1 mm 4 mps 759 mmHg 76%
    04:00 +29°C° 0.1 mm 4 mps 759 mmHg 77%
    05:00 +29°C° 1 mm 4 mps 759 mmHg 77%
    06:00 +29°C° 1 mm 4 mps 760 mmHg 78%
    07:00 +29°C° 1 mm 4 mps 760 mmHg 78%
    08:00 +32°C° 0.8 mm 4 mps 760 mmHg 73%
    09:00 +33°C° 0.8 mm 5 mps 761 mmHg 67%
    10:00 +34°C° 0.8 mm 5 mps 761 mmHg 62%
    11:00 +35°C° 0.5 mm 5 mps 761 mmHg 60%
    12:00 +35°C° 0.5 mm 6 mps 760 mmHg 58%
    13:00 +36°C° 0.5 mm 6 mps 760 mmHg 56%
    14:00 +36°C° 0.5 mm 6 mps 760 mmHg 57%
    15:00 +35°C° 0.5 mm 6 mps 760 mmHg 58%
    16:00 +35°C° 0.5 mm 6 mps 760 mmHg 59%
    17:00 +34°C° 0.4 mm 5 mps 760 mmHg 62%
    18:00 +33°C° 0.4 mm 5 mps 760 mmHg 66%
    19:00 +33°C° 0.4 mm 4 mps 760 mmHg 69%
    20:00 +32°C° 0 mm 4 mps 761 mmHg 71%
    21:00 +32°C° 0 mm 4 mps 761 mmHg 73%
    22:00 +30°C° 0 mm 3 mps 762 mmHg 74%
    23:00 +30°C° 0 mm 3 mps 761 mmHg 76%

    26 July, Thursday

    Time Temperature Precipitation Wind Pressure Humidity
    00:00 +30°C° 0 mm 3 mps 761 mmHg 77%
    01:00 +30°C° 0 mm 3 mps 761 mmHg 78%
    02:00 +29°C° 0 mm 3 mps 761 mmHg 79%
    03:00 +29°C° 0 mm 3 mps 761 mmHg 80%
    04:00 +29°C° 0 mm 3 mps 761 mmHg 81%
    05:00 +29°C° 0.1 mm 3 mps 761 mmHg 81%
    06:00 +30°C° 0.1 mm 3 mps 761 mmHg 80%
    07:00 +30°C° 0.1 mm 3 mps 762 mmHg 80%
    08:00 +31°C° 0.1 mm 3 mps 762 mmHg 73%
    09:00 +34°C° 0.1 mm 4 mps 762 mmHg 66%
    10:00 +35°C° 0.1 mm 4 mps 762 mmHg 60%
    11:00 +36°C° 0 mm 4 mps 762 mmHg 57%
    12:00 +36°C° 0 mm 4 mps 762 mmHg 55%
    13:00 +37°C° 0 mm 5 mps 762 mmHg 52%
    14:00 +37°C° 0.1 mm 5 mps 762 mmHg 52%
    15:00 +37°C° 0.1 mm 5 mps 761 mmHg 53%
    16:00 +36°C° 0.1 mm 5 mps 761 mmHg 53%
    17:00 +36°C° 0.1 mm 4 mps 761 mmHg 57%
    18:00 +35°C° 0.1 mm 4 mps 761 mmHg 62%
    19:00 +34°C° 0.1 mm 3 mps 762 mmHg 66%
    20:00 +33°C° 0.4 mm 3 mps 762 mmHg 69%
    21:00 +31°C° 0.4 mm 2 mps 762 mmHg 71%
    22:00 +31°C° 0.4 mm 2 mps 763 mmHg 74%
    23:00 +30°C° 0.2 mm 2 mps 762 mmHg 75%

    27 July, Friday

    Time Temperature Precipitation Wind Pressure Humidity
    00:00 +30°C° 0.2 mm 1 mps 762 mmHg 75%
    01:00 +30°C° 0.2 mm 1 mps 762 mmHg 76%
    02:00 +30°C° 0 mm 1 mps 762 mmHg 77%
    03:00 +29°C° 0 mm 1 mps 761 mmHg 78%
    04:00 +29°C° 0 mm 1 mps 761 mmHg 79%
    05:00 +29°C° 0 mm 1 mps 762 mmHg 78%
    06:00 +30°C° 0 mm 1 mps 762 mmHg 77%
    07:00 +30°C° 0 mm 1 mps 762 mmHg 76%
    08:00 +31°C° 0 mm 1 mps 762 mmHg 70%
    09:00 +33°C° 0 mm 1 mps 763 mmHg 63%
    10:00 +34°C° 0 mm 1 mps 763 mmHg 56%
    11:00 +35°C° 0.2 mm 1 mps 763 mmHg 54%
    12:00 +36°C° 0.2 mm 2 mps 762 mmHg 51%
    13:00 +37°C° 0.2 mm 2 mps 762 mmHg 49%
    14:00 +37°C° 0.1 mm 2 mps 762 mmHg 50%
    15:00 +37°C° 0.1 mm 3 mps 762 mmHg 51%
    16:00 +37°C° 0.1 mm 3 mps 762 mmHg 52%
    17:00 +36°C° 0.7 mm 3 mps 762 mmHg 57%
    18:00 +34°C° 0.7 mm 3 mps 762 mmHg 62%
    19:00 +33°C° 0.7 mm 3 mps 762 mmHg 67%
    20:00 +32°C° 0 mm 2 mps 762 mmHg 69%
    21:00 +31°C° 0 mm 2 mps 762 mmHg 71%
    22:00 +31°C° 0 mm 2 mps 763 mmHg 73%
    23:00 +30°C° 0 mm 1 mps 763 mmHg 74%
    Show more